Vorticity
nan nan nan nan nan nan nan nan nan nan nan nan nan nan nan nan nan nan nan nan nan nan nan nan nan nan nan nan nan nan nan nan nan
nan 4 5 6 6 6 8 10 8 5 5 2 2 5 9 9 6 6 3 7 8 8 6 6 7 8 7 8 9 7 4 5 nan
nan 5 6 6 7 7 9 9 5 5 4 2 3 7 10 6 5 6 3 5 4 5 5 6 7 6 9 11 8 5 5 5 nan
nan 7 8 7 6 7 8 6 5 4 3 2 3 5 9 7 4 5 5 6 5 3 5 6 7 7 10 10 6 5 5 5 nan
nan 10 9 8 6 4 6 6 6 4 1 1 2 3 6 7 5 4 8 6 7 4 4 6 7 7 9 9 7 5 5 5 nan
nan 6 8 7 5 5 5 4 1 -0 2 4 3 9 8 4 6 5 8 6 7 6 2 6 7 7 7 11 9 5 5 5 nan
nan 3 3 4 5 4 4 3 1 0 3 8 10 10 8 6 6 6 5 6 6 8 4 4 7 6 6 9 10 6 6 6 nan
nan 3 2 3 2 3 4 3 4 7 8 9 13 9 7 6 5 7 6 6 7 6 5 3 6 7 6 5 9 11 5 5 nan
nan 6 6 4 6 7 4 8 8 6 9 10 9 8 9 9 5 5 6 7 7 7 8 5 4 4 6 5 6 10 10 8 nan
nan 7 6 8 7 6 7 7 5 5 6 8 8 7 9 9 6 5 5 8 6 5 7 8 6 4 4 4 6 6 11 11 nan
nan 8 7 7 8 8 8 7 6 6 6 8 8 7 8 8 7 5 2 4 8 7 5 6 7 8 6 5 3 5 6 8 nan
nan 8 8 6 9 7 6 7 7 7 6 6 7 7 6 5 10 8 6 3 2 4 8 9 7 7 7 8 5 3 5 5 nan
nan 7 9 7 7 6 7 6 7 7 6 5 6 7 7 7 7 8 8 7 3 1 5 7 6 5 6 6 8 5 5 5 nan
nan 6 9 8 6 7 6 7 7 7 6 6 7 8 8 6 6 8 8 7 7 7 4 1 3 6 6 7 8 7 6 5 nan
nan 8 8 6 7 8 8 8 6 7 7 7 6 5 7 9 7 6 6 8 8 7 8 5 2 5 6 8 7 5 6 7 nan
nan 9 8 7 8 9 7 7 7 7 7 5 5 7 6 6 6 6 7 7 7 7 6 8 8 7 4 4 6 7 5 4 nan
nan 9 8 6 8 9 7 7 7 8 7 5 6 7 8 8 8 6 6 7 7 6 7 6 7 8 8 6 5 7 6 5 nan
nan 7 7 9 9 9 8 6 6 7 5 6 9 8 9 10 9 9 8 7 6 8 8 6 7 7 9 9 9 6 4 5 nan
nan 9 8 7 7 9 8 7 6 7 5 6 9 6 8 11 8 9 10 9 9 8 7 10 8 7 6 6 11 10 4 5 nan
nan nan nan nan nan nan nan nan nan nan nan nan nan nan nan nan nan nan nan nan nan nan nan nan nan nan nan nan nan nan nan nan nan
CAPE
193 174 349 269 279 288 337 382 199 269 87 51 11 39 25 12 8 14 41 53 101 111 82 160 213 130 8 4 41 249 244 397 325
64 234 313 343 290 176 280 208 167 66 52 9 12 25 15 5 3 2 1 50 107 88 78 75 103 145 212 105 200 218 136 88 117
102 296 345 396 350 272 223 133 73 25 15 11 17 21 15 3 11 9 21 65 60 57 50 68 75 145 194 226 159 38 22 14 26
166 330 509 289 334 429 108 72 28 14 21 13 13 7 11 5 11 10 32 71 29 41 41 55 75 129 168 193 99 40 16 4 6
199 231 188 178 169 246 151 78 19 21 28 16 0 2 13 1 14 33 36 56 27 23 6 51 69 70 113 139 101 44 12 7 8
33 32 80 161 149 116 60 44 21 10 10 1 0 13 16 5 25 31 57 46 30 13 18 52 59 61 75 77 71 52 17 11 3
13 11 36 72 80 70 60 33 21 4 0 0 4 4 6 12 12 25 57 42 30 22 26 36 54 51 55 62 84 66 23 6 3
24 16 13 11 10 14 3 8 9 2 0 0 1 2 16 19 30 43 59 35 24 24 15 23 38 47 26 53 72 66 44 12 3
15 29 10 24 17 5 15 13 7 1 1 1 3 2 3 7 14 18 53 47 72 42 17 8 26 37 38 42 52 79 67 47 29
6 9 16 21 10 12 14 14 9 3 2 1 5 0 6 0 8 13 26 62 63 30 47 40 29 28 31 23 37 54 72 60 41
5 5 10 17 7 8 9 12 9 6 1 1 5 2 7 2 0 11 10 47 66 48 20 30 21 15 18 22 25 37 58 72 55
8 9 2 17 7 5 9 8 12 7 2 1 2 3 3 0 3 15 14 22 29 38 22 10 35 38 31 9 8 16 26 31 33
4 7 5 11 11 11 11 10 12 9 4 4 3 0 0 0 0 8 7 3 1 2 22 47 19 10 10 21 10 4 19 19 20
1 7 4 3 11 10 12 13 12 13 9 8 10 4 0 0 0 0 1 0 6 2 0 0 2 9 0 1 9 4 4 2 18
0 6 2 2 5 11 13 10 18 11 8 1 1 2 1 3 3 0 0 0 1 0 5 1 0 0 0 0 9 7 6 7 9
0 2 6 2 0 1 3 5 11 16 2 1 2 0 0 0 0 0 2 0 0 0 0 0 8 0 0 0 0 0 0 2 1
0 0 0 2 0 0 2 2 3 10 2 7 8 6 0 0 0 0 0 0 0 0 0 0 0 0 3 0 0 0 0 0 1
0 0 0 0 0 0 1 1 1 2 3 5 3 0 3 0 0 0 0 0 0 0 0 0 0 0 0 0 0 0 0 0 2
0 0 0 0 0 0 0 2 2 6 0 0 0 1 5 15 5 0 0 0 0 0 0 0 0 0 0 0 0 0 0 0 0
0 0 0 0 0 2 2 5 7 21 4 4 2 3 6 5 19 31 9 0 0 0 0 0 0 0 0 0 0 0 0 0 0